Find HORIS-2

NORAD ID: 64554 Int'l Des: NNA 2025-135 Owner: ACMEO Country: US operational
LEOCIRCULARRETROGRADESSO

現在のビュー

3D地球を読み込み中...

HORIS-2について

説明を読み込み中...

次回通過

Passes for default location (London). Set your location on the main map for personalized predictions.

高度履歴

Loading altitude history...

軌道要素

1 64554U 25135AC 26150.84527530 .00023650 00000-0 81288-3 0 9994
2 64554 97.4631 267.8911 0001462 44.5903 315.5455 15.30099268 52354
Epoch: May 30, 2026 • Age: 11 hours

現在のステータス

高度 484.2 km
速度 7.62 km/s
衛星直下点 -24.02°S, 84.65°W
打ち上げ日 Jun 23, 2025
運用期間 0.9 years
タイプ other

技術仕様

分類 Payload
質量 1.00 kg
乾燥質量 1.00 kg
総質量 1.00 kg
長さ 0.10 m
直径 0.10 m
スパン 0.10 m
形状 Box
製造者 ACMEO
バスタイプ Cubesat 1U
フェーズステータス In Orbit
所有者/国 ACMEO/US

Most Searched